San Antonio Stinson, TX

3:51 AM CDT on April 27, 2018 (GMT -0500)
Stinson Municipal

Weather History for KSSF - October, 2014

Change the Weather History Date:

Monday, October 20, 2014

  Actual Average Record
Temperature  
Mean Temperature 75 °F -  
Max Temperature 86 °F 77 °F 90 °F (2004)
Min Temperature 66 °F 58 °F 44 °F (1999)
Cooling Degree Days 10    
Growing Degree Days 25 (Base 50)    
Moisture  
Dew Point 61 °F    
Average Humidity 66    
Maximum Humidity 93    
Minimum Humidity 40    
Precipitation  
Precipitation 0.00 in - - ()
Sea Level Pressure  
Sea Level Pressure 29.98 in    
Wind  
Wind Speed 6 mph (East)    
Max Wind Speed 10 mph    
Max Gust Speed -    
Visibility 9 miles    
Events      
Averages and records for this station are not official NWS values.
T = Trace of Precipitation, MM = Missing Value Source: NWS Daily Summary

Daily Weather History Graph

Daily Weather History Graph

Search for Another Location

Airport or City:

Astronomy

Oct. 20, 2014 Rise Set
Actual Time 7:38 AM CDT 6:58 PM CDT
Civil Twilight 7:14 AM CDT 7:22 PM CDT
Nautical Twilight 6:46 AM CDT 7:50 PM CDT
Astronomical Twilight 6:19 AM CDT 8:17 PM CDT
Moon 4:42 AM CDT (10/20) 5:09 PM CDT (10/20)
Length of Visible Light 12h 08m
Length of Day
11h 19m
Waning Crescent, 10% of the Moon is Illuminated
Oct 20
Waning Crescent
Oct 23
New
Oct 30
First Quarter
Nov 6
Full
Nov 14
Last Quarter

Hourly Weather History & Observations

Time (CDT) Temp. Heat Index Dew Point Humidity Pressure Visibility Wind Dir Wind Speed Gust Speed Precip Events Conditions
12:53 AM 70.0 °F - 64.0 °F 81% 29.98 in 10.0 mi SE 4.6 mph - N/A   Clear
1:53 AM 69.1 °F - 64.9 °F 87% 29.97 in 10.0 mi SE 6.9 mph - N/A   Clear
2:53 AM 69.1 °F - 64.9 °F 87% 29.98 in 10.0 mi East 3.5 mph - N/A   Clear
3:53 AM 68.0 °F - 64.9 °F 90% 29.97 in 10.0 mi East 3.5 mph - N/A   Partly Cloudy
4:53 AM 66.9 °F - 64.0 °F 90% 29.97 in 8.0 mi Calm Calm - N/A   Clear
5:53 AM 66.0 °F - 64.0 °F 93% 29.97 in 7.0 mi NE 3.5 mph - N/A   Partly Cloudy
6:53 AM 66.0 °F - 64.0 °F 93% 29.99 in 7.0 mi NE 5.8 mph - N/A   Clear
7:53 AM 66.0 °F - 63.0 °F 90% 29.99 in 5.0 mi NNE 6.9 mph - N/A   Clear
8:53 AM 69.1 °F - 64.0 °F 84% 30.02 in 8.0 mi ENE 8.1 mph - N/A   Clear
9:53 AM 73.0 °F - 64.0 °F 73% 30.04 in 10.0 mi ENE 6.9 mph - N/A   Clear
10:53 AM 75.9 °F - 64.0 °F 67% 30.04 in 10.0 mi NE 9.2 mph - N/A   Partly Cloudy
11:53 AM 78.1 °F - 62.1 °F 58% 30.03 in 10.0 mi NE 6.9 mph - N/A   Clear
12:53 PM 82.0 °F 82.7 °F 61.0 °F 49% 30.00 in 10.0 mi ESE 10.4 mph - N/A   Scattered Clouds
1:53 PM 82.0 °F 82.0 °F 57.9 °F 44% 29.98 in 10.0 mi East 9.2 mph - N/A   Partly Cloudy
2:53 PM 82.9 °F 82.6 °F 57.9 °F 42% 29.95 in 10.0 mi ESE 9.2 mph - N/A   Clear
3:53 PM 82.9 °F 82.4 °F 57.0 °F 41% 29.94 in 10.0 mi East 10.4 mph - N/A   Mostly Cloudy
4:53 PM 84.9 °F 84.2 °F 57.9 °F 40% 29.93 in 10.0 mi ENE 9.2 mph - N/A   Partly Cloudy
5:53 PM 82.9 °F 82.4 °F 57.0 °F 41% 29.93 in 10.0 mi East 6.9 mph - N/A   Clear
6:53 PM 80.1 °F 80.4 °F 57.0 °F 45% 29.94 in 10.0 mi East 5.8 mph - N/A   Clear
7:53 PM 77.0 °F - 57.9 °F 52% 29.96 in 10.0 mi ENE 5.8 mph - N/A   Scattered Clouds
8:53 PM 75.9 °F - 57.9 °F 54% 29.97 in 10.0 mi East 6.9 mph - N/A   Clear
9:53 PM 73.9 °F - 57.9 °F 57% 29.98 in 10.0 mi East 8.1 mph - N/A   Clear
10:53 PM 73.0 °F - 57.9 °F 59% 29.99 in 10.0 mi ENE 6.9 mph - N/A   Clear
11:53 PM 71.1 °F - 57.9 °F 63% 29.98 in 10.0 mi ENE 5.8 mph - N/A   Clear